FENGYUN 1C DEB, 31570

Orbit data source: Space-Track

FENGYUN 1C DEB, 31570 is space debris in SSO originally from a launch on Mon, 10 May 1999 UTC launched from the Taiyaun Space Center, China (TSC). Fengyun 1C debris stems from the Chinese weather satellite Fengyun-1C, which was intentionally destroyed by a Chinese anti-satellite missile in 2007. This event dramatically increased the amount of space debris, with thousands of trackable fragments posing hazards to satellites and human spaceflight. The Fengyun 1C debris cloud has become a focal point in discussions about space sustainability and the need for international regulations to prevent the creation of new debris.

Loading next visibility...
Identifier
31570, 1999-025BZM
Orbit
SSO
Country
Flag of CNCN / PRC
Related business
Manufacturer
Unknown
Mission
Spacecraft
Bus & Motor
Unknown
Mass
Unknown
Launch date (UTC)
1999-05-10 (26 years ago)
Launch vehicle
Unknown
Launch site
Taiyaun Space Center, China (TSC)
Object type
Payload
Rocket body
Debris
Shape & HBR
Unknown shape, 0.1 m
Radar Cross Section
Small (<0.1 m²)

Expand to show TLE details & history
Last TLE update: 6 days ago

TLE from 6 days ago
0 FENGYUN 1C DEB
1 31570U 99025BZM 25291.77325728  .00017737  00000-0  68811-2 0  9992
2 31570 102.5698 307.2848 0150306   1.2236 358.9268 14.24009147625848
Epoch: 2025-10-18T18:33Z
TLE epoch observation values (Epoch: 2025-10-18T18:33:29.428Z)
Latitude
-0.00006°
Longitude
1.41273°
Altitude
706.527 km
Speed
7.559 km/s
True Right ascension
20h 29m 08s
True Declination
0° 00' 00"
Sunlit
Object was in daylight at epoch
Visualization orbit readout
Latitude
Unknown
Longitude
Unknown
Altitude
Unknown
Speed
Unknown
Apparent Right ascension
Unknown
Apparent Declination
Unknown
Sunlit
N/A
Visualization observer readout
Local Sidereal Time
14:02:54
Azimuth
Unknown
Elevation
Unknown
Doppler factor
Unknown
Orbital elements
Apogee altitude
917.233 km
Perigee altitude
701.173 km
Semi-major axis
7,187.34 km
Eccentricity
0.01503
Inclination
102.5698°
RAAN
307.2848°
Arg. of periapsis
1.2236°
True anomaly
358.89392°
Mean anomaly
358.9268°
Eccentric anomaly
358.91042°
Mean motion
3.56198 °/min
Orbital period
101.07 mins
BSTAR
0.0068811
Loading maneuver chart data...
Computing Atmospheric mass density...

Documentation

Showing up to 5 results
|